FW4111 Weather Reports


time (UTC)temp
C
wind
direction
speed
KPH
gust
KPH
rain 1hr
cm
rain 24hr
cm
rain mn
cm
humidity
%
barometer
mb
20260905091552 -17 0.0 0.0 0.00 0.00 0.00 1008.8
20260905090050 -17 348 8.0 14.5 0.00 0.00 0.00 1008.9
20260905084531 23 14 6.4 16.1 0.00 0.00 0.00 79 1009.0
20260905083027 23 41 8.0 14.5 0.00 0.00 0.00 78 1009.0
20260905081519 23 6 8.0 16.1 0.00 0.00 0.00 77 1009.1
20260905080129 23 354 4.8 12.9 0.00 0.00 0.00 78 1009.2
20260905074600 23 356 8.0 14.5 0.00 0.00 0.00 77 1009.1
20260905073100 24 2 8.0 16.1 0.00 0.00 0.00 77 1009.2
20260905071552 24 344 8.0 19.3 0.00 0.00 0.00 77 1009.1
20260905070049 24 349 9.7 16.1 0.00 0.00 0.00 77 1009.2
20260905064528 24 41 6.4 17.7 0.00 0.00 0.00 77 1009.1
20260905063022 24 39 11.3 24.1 0.00 0.00 0.00 77 1009.2
20260905061525 25 6 9.7 24.1 0.00 0.00 0.00 76 1009.3
20260905060120 25 12 9.7 19.3 0.00 0.00 0.00 76 1009.3
20260905054559 25 30 9.7 19.3 0.00 0.05 0.00 75 1009.4
20260905053108 25 30 8.0 20.9 0.00 0.05 0.00 76 1009.6
20260905051553 25 358 8.0 20.9 0.00 0.05 0.00 74 1009.7
20260905050048 25 30 8.0 19.3 0.00 0.05 0.00 75 1009.8
20260905044533 25 327 11.3 20.9 0.00 0.05 0.00 73 1010.0
20260905043023 26 356 8.0 16.1 0.00 0.05 0.00 75 1010.0
20260905041519 26 14 8.0 16.1 0.00 0.05 0.00 75 1010.3
20260905040117 26 11 11.3 17.7 0.00 0.05 0.00 74 1010.2
20260905034611 26 321 6.4 14.5 0.00 0.05 0.05 76 1010.2
20260905033112 26 335 4.8 14.5 0.00 0.05 0.05 76 1010.0
20260905031557 26 342 6.4 16.1 0.00 0.05 0.05 76 1010.1
20260905030022 26 354 6.4 14.5 0.00 0.05 0.05 77 1010.0
20260905024518 26 342 6.4 14.5 0.00 0.05 0.05 76 1010.0
20260905023014 26 352 4.8 12.9 0.00 0.05 0.05 79 1009.9
20260905021515 26 337 6.4 14.5 0.00 0.05 0.05 78 1010.0
20260905020114 26 343 6.4 12.9 0.00 0.05 0.05 81 1009.9
20260905014553 26 360 4.8 14.5 0.00 0.05 0.05 83 1010.1
20260905013050 27 26 6.4 12.9 0.00 0.05 0.05 82 1010.0
20260905011549 27 334 3.2 9.7 0.00 0.05 0.05 83 1010.2
20260905010049 27 342 1.6 11.3 0.00 0.05 0.05 84 1009.8
20260905004525 27 323 4.8 9.7 0.00 0.05 0.05 84 1009.8
20260905003020 27 356 3.2 8.0 0.00 0.05 0.05 83 1009.7
20260905001516 27 322 1.6 11.3 0.00 0.05 0.05 82 1009.6
20260905000146 27 327 3.2 9.7 0.00 0.05 0.05 82 1009.7
20260904234555 27 318 4.8 12.9 0.00 0.05 0.05 81 1009.8
20260904233051 27 343 4.8 9.7 0.00 0.05 0.05 81 1009.8
20260904231548 27 290 1.6 11.3 0.00 0.05 0.05 79 1010.0
20260904224525 28 325 9.7 20.9 0.00 0.05 0.05 76 1010.0
20260904223021 28 1 6.4 14.5 0.00 0.05 0.05 76 1009.9
20260904221517 28 293 9.7 22.5 0.00 0.05 0.05 74 1009.9
20260904220119 28 340 6.4 22.5 0.00 0.05 0.05 74 1009.7
20260904214600 28 324 6.4 14.5 0.00 0.05 0.05 76 1009.8
20260904213054 28 282 0.0 11.3 0.00 0.05 0.05 78 1009.8
20260904211550 28 238 6.4 12.9 0.00 0.05 0.05 78 1009.7
20260904210047 28 150 4.8 12.9 0.00 0.05 0.05 80 1009.7
20260904204531 28 221 11.3 20.9 0.00 0.05 0.05 81 1009.9
20260904203024 27 151 11.3 19.3 0.00 0.05 0.05 82 1010.1
20260904201521 27 148 9.7 17.7 0.00 0.05 0.05 83 1010.3
20260904200122 27 188 6.4 17.7 0.00 0.05 0.05 82 1010.3
20260904194601 27 186 4.8 9.7 0.00 0.05 0.05 82 1010.5
20260904193057 27 165 1.6 9.7 0.00 0.05 0.05 81 1010.7
20260904191553 27 232 4.8 9.7 0.00 0.05 0.05 81 1010.9
20260904190053 28 227 3.2 12.9 0.00 0.05 0.05 80 1010.7
20260904184529 27 149 4.8 11.3 0.00 0.05 0.05 80 1010.8
20260904183026 28 132 0.0 8.0 0.00 0.05 0.05 78 1011.0
20260904181531 27 163 4.8 9.7 0.00 0.05 0.05 81 1011.0
20260904180003 28 133 1.6 8.0 0.00 0.05 0.05 76 1011.0
20260904174604 28 134 6.4 12.9 0.00 0.05 0.05 72 1011.0
20260904173103 28 97 3.2 12.9 0.00 0.05 0.05 72 1010.9
20260904171613 28 101 6.4 11.3 0.00 0.05 0.05 74 1010.9
20260904170054 28 101 6.4 14.5 0.00 0.05 0.05 74 1010.8
20260904164532 28 103 6.4 14.5 0.00 0.05 0.05 73 1010.7
20260904163028 29 356 6.4 20.9 0.00 0.05 0.05 69 1010.7
20260904161523 29 339 11.3 24.1 0.00 0.05 0.05 70 1010.9
20260904160002 28 342 8.0 22.5 0.00 0.05 0.05 73 1011.0
20260904154604 28 8 12.9 22.5 0.00 0.05 0.05 74 1011.2
20260904153112 28 7 16.1 27.4 0.00 0.05 0.05 74 1011.2
20260904151558 28 355 16.1 25.7 0.00 0.05 0.05 76 1011.2
20260904150054 27 17 16.1 27.4 0.00 0.05 0.05 78 1011.1
20260904144532 27 61 14.5 24.1 0.00 0.05 0.05 79 1011.2
20260904143029 27 37 14.5 27.4 0.00 0.05 0.05 81 1011.2
20260904141523 27 11 16.1 27.4 0.00 0.05 0.05 82 1011.3
20260904140003 26 8 14.5 29.0 0.00 0.05 0.05 84 1011.1
20260904134603 26 315 12.9 25.7 0.00 0.05 0.05 85 1011.0
20260904133059 26 302 9.7 25.7 0.00 0.05 0.05 89 1010.7
20260904131602 26 323 12.9 27.4 0.00 0.05 0.05 90 1010.9
20260904130049 25 328 12.9 22.5 0.00 0.05 0.05 93 1010.8
20260904124525 25 295 6.4 17.7 0.00 0.05 0.05 95 1010.8
20260904123017 24 281 9.7 19.3 0.00 0.05 0.05 96 1010.7
20260904121511 24 315 6.4 17.7 0.00 0.05 0.05 96 1010.8
20260904120110 23 287 12.9 24.1 0.00 0.05 0.05 97 1010.7
20260904114548 23 291 12.9 20.9 0.00 0.05 0.05 98 1010.7
20260904113044 23 314 14.5 19.3 0.00 0.05 0.05 99 1010.5
20260904111538 -17 0.0 0.0 0.00 0.05 0.05 1010.3
20260904110016 -17 0.0 0.0 0.00 0.05 0.05 1010.4
20260904104513 -17 0.0 0.0 0.00 0.05 0.05 1010.0
20260904103008 -17 0.0 0.0 0.00 0.05 0.05 1010.1
20260904101507 -17 0.0 0.0 0.00 0.05 0.05 1010.0
20260904100112 -17 0.0 0.0 0.00 0.05 0.05 1010.1
20260904094602 -17 0.0 0.0 0.00 0.05 0.05 1009.9
20260904093045 -17 0.0 0.0 0.00 0.05 0.05 1010.0